[[{"header":{"parameterUnit":"m.s-1","parameterCategory":2,"la1":30.2991,"la2":30.254,"lo1":-89.0895,"lo2":-89.0444,"dy":0.0017,"dx":0.0017,"nx":28,"ny":28,"refTime":"2024-04-29T21:00:00:Z","depth":"0","parameterNumber":2,"parameterNumberName":"U-component_of_CURRENTS"},"data":[0,0,0,0,0,0,0,0,0,0,0,0,0,0,0,0,0,0,0,0,0,0,0,0,0,0,0,0,0,0,0,0,0,0,0,0,0,0,0,0,0,0,0,0,0,0,0,0,0,0,0,0,0,0,0,0,0,0,-0.2763,-0.2761,0,-0.2588,-0.2586,-0.2583,-0.247,-0.247,-0.2469,-0.2469,-0.2246,-0.2241,-0.2235,0,0,0,0,0,0,0,0,0,0,0,0,0,-0.2884,-0.2883,-0.2763,-0.2761,-0.2759,-0.2588,-0.2586,-0.2583,-0.247,-0.247,-0.2469,-0.2469,-0.2248,-0.2241,-0.2235,0,0,0,0,0,0,0,0,0,0,0,0,0,-0.278,-0.2882,-0.2763,-0.2685,-0.2676,-0.2589,-0.2585,-0.2582,-0.247,-0.247,-0.2469,-0.2468,-0.225,-0.2242,-0.2234,-0.2195,0,0,-0.2208,-0.2205,0,0,0,0,0,0,0,0,-0.2786,-0.2775,-0.2698,-0.269,-0.268,-0.2553,-0.2546,-0.2451,-0.247,-0.2545,-0.2469,-0.2468,-0.2347,-0.233,-0.2295,-0.2185,-0.2175,-0.2208,-0.2203,-0.2199,-0.2197,0,0,0,0,0,0,0,-0.2793,-0.2781,-0.269,-0.2696,-0.2685,-0.2619,-0.2604,-0.2527,-0.2448,-0.2538,-0.2531,-0.2516,-0.2341,-0.2304,-0.2289,-0.2172,-0.2208,-0.2201,-0.2195,-0.2192,-0.1994,-0.1994,0,0,0,0,0,0,-0.2828,-0.2789,-0.2696,-0.2685,-0.2736,-0.2618,-0.2601,-0.2592,-0.245,-0.2429,-0.2517,-0.2512,-0.2318,-0.2299,-0.2281,-0.2214,-0.2199,-0.2191,-0.2187,-0.1994,-0.1994,-0.1993,0,0,0,0,0,0,-0.2831,-0.2822,-0.2703,-0.2735,-0.2716,-0.2618,-0.2607,-0.2589,-0.2567,-0.2435,-0.2412,-0.2517,-0.2317,-0.2292,-0.2222,-0.2205,-0.2188,-0.218,-0.1994,-0.1994,-0.1994,-0.2089,0,0,0,0,0,0,-0.2836,-0.2824,-0.2843,-0.2738,-0.2715,-0.267,-0.2608,-0.2586,-0.2559,-0.2551,-0.2427,-0.2404,-0.2314,-0.2236,-0.2214,-0.2194,-0.2174,-0.1995,-0.1994,-0.1994,-0.2086,-0.2092,-0.2097,0,0,0,0,0,-0.2841,-0.2866,-0.2845,-0.2834,-0.274,-0.2671,-0.2654,-0.2578,-0.2561,-0.2556,-0.247,-0.2409,-0.2216,-0.2229,-0.2204,-0.218,-0.1995,-0.1994,-0.1994,-0.2084,-0.2091,-0.2097,0,0,0,0,0,0,-0.2949,-0.2854,-0.2828,-0.2831,-0.2767,-0.2654,-0.2638,-0.2602,-0.2531,-0.2516,-0.241,-0.2381,-0.2308,-0.2241,-0.2259,-0.2122,-0.2094,-0.2088,-0.2171,-0.2176,-0.2181,-0.2131,-0.2167,0,0,0,0,0,-0.298,-0.2949,-0.2871,-0.2867,-0.2841,-0.275,-0.272,-0.2666,-0.2585,-0.2554,-0.2466,-0.2369,-0.2283,-0.2233,-0.2144,-0.208,-0.1994,-0.2046,-0.2052,-0.2057,-0.1999,-0.1894,-0.1884,-0.1991,-0.1991,-0.1991,0,0,-0.3013,-0.2961,-0.2943,-0.2884,-0.282,-0.2761,-0.2728,-0.2679,-0.2618,-0.254,-0.2443,-0.2387,-0.2273,-0.2188,-0.2149,-0.2132,-0.199,-0.2056,-0.2061,-0.1999,-0.1892,-0.1881,-0.1872,-0.1991,-0.1991,-0.1991,0,0,-0.3013,-0.3024,-0.297,-0.293,-0.2848,-0.2793,-0.2794,-0.2694,-0.2644,-0.2564,-0.2487,-0.2421,-0.2295,-0.2197,-0.2135,-0.2118,-0.2027,-0.2112,-0.2086,-0.1988,-0.1978,-0.1967,-0.1884,-0.1865,-0.2109,-0.211,-0.211,0,-0.3062,-0.2968,-0.2952,-0.2893,-0.2837,-0.2814,-0.2735,-0.2698,-0.2588,-0.2528,-0.254,-0.234,-0.2277,-0.2139,-0.2137,-0.2123,-0.2063,-0.208,-0.1994,-0.1982,-0.1969,-0.1885,-0.1863,-0.2114,-0.2114,-0.2113,-0.2113,0,-0.2964,-0.2927,-0.2901,-0.28,-0.2772,-0.2704,-0.2651,-0.262,-0.2579,-0.2511,-0.2396,-0.2319,-0.2185,-0.2187,-0.2152,-0.2036,-0.2023,-0.2025,-0.1981,-0.1964,-0.1878,-0.1853,-0.2121,-0.2119,-0.2118,-0.2116,0,0,-0.292,-0.2842,-0.2821,-0.2759,-0.27,-0.2648,-0.2599,-0.2494,-0.2421,-0.2378,-0.2249,-0.2166,-0.2143,-0.207,-0.204,-0.1971,-0.1878,-0.197,-0.1963,-0.189,-0.1668,-0.16,-0.1567,-0.1881,-0.1876,-0.1873,-0.1657,0,-0.2809,-0.2687,-0.2671,-0.2556,-0.2476,-0.2478,-0.2416,-0.2358,-0.2307,-0.2208,-0.2158,-0.2045,-0.2096,-0.204,-0.1984,-0.1892,-0.181,-0.1935,-0.1687,-0.1678,-0.1623,-0.1533,-0.1465,-0.126,-0.1632,-0.1628,-0.1625,0,-0.2657,-0.2582,-0.2452,-0.2379,-0.2344,-0.23,-0.2185,-0.2139,-0.2062,-0.202,-0.1952,-0.1917,-0.1815,-0.1869,-0.1694,-0.178,-0.1708,-0.1657,-0.1648,-0.1512,-0.1561,-0.1326,-0.12,-0.1215,-0.1586,-0.1589,-0.1592,0,-0.2521,-0.2426,-0.2309,-0.2279,-0.2205,-0.2151,-0.2125,-0.206,-0.1995,-0.1909,-0.1842,-0.1748,-0.1668,-0.159,-0.153,-0.1595,-0.1332,-0.1403,-0.1263,-0.1259,-0.1102,-0.1091,-0.0945,-0.1227,-0.1227,-0.1228,-0.1228,0,-0.236,-0.2263,-0.2244,-0.2161,-0.2037,-0.2046,-0.192,-0.1899,-0.1829,-0.1724,-0.1742,-0.1619,-0.1593,-0.1473,-0.1443,-0.1263,-0.1255,-0.1192,-0.1168,-0.114,-0.1135,-0.1062,-0.111,-0.122,-0.1222,-0.1223,-0.1225,0,-0.2204,-0.2187,-0.2058,-0.198,-0.1964,-0.1884,-0.1836,-0.1747,-0.1722,-0.1586,-0.1556,-0.1477,-0.1327,-0.1287,-0.1123,-0.1109,-0.0942,-0.091,-0.089,-0.0866,-0.0771,-0.0827,-0.0602,-0.0583,-0.07,-0.0697,-0.0694,0,-0.2114,-0.2019,-0.1939,-0.1876,-0.1833,-0.1752,-0.1688,-0.1682,-0.1604,-0.1479,-0.1385,-0.1234,-0.1087,-0.0858,-0.0789,-0.0665,-0.0746,-0.0546,-0.0639,-0.0686,-0.0732,-0.0819,-0.0829,-0.0489,-0.0485,-0.0481,-0.0478,0,-0.1905,-0.1885,-0.1784,-0.1683,-0.1609,-0.1535,-0.1462,-0.1395,-0.1361,-0.1253,-0.1076,-0.0958,-0.0756,-0.0583,-0.0459,-0.0406,-0.0547,-0.0467,-0.0495,-0.0498,-0.0594,-0.0593,-0.0747,-0.0447,-0.045,-0.0452,-0.0454,-0.0455,-0.177,-0.1667,-0.1565,-0.1463,-0.1387,-0.1292,-0.1199,-0.1132,-0.1001,-0.082,-0.0806,-0.0586,-0.0475,-0.0273,-0.0232,-0.0156,-0.0255,-0.0174,-0.0222,-0.0293,-0.0307,-0.0393,-0.0094,-0.0095,-0.0096,-0.0097,-0.0097,0,-0.1577,-0.147,-0.1359,-0.1224,-0.1102,-0.1133,-0.101,-0.09,-0.0718,-0.0577,-0.043,-0.0209,-0.0076,-0.0025,0.0053,0.0061,-0.0006,0.003,-0.0087,-0.0097,-0.0119,-0.0145,0.0133,0.0133,0.0133,0.0133,0.0133,0.0133,-0.146,-0.1278,-0.1221,-0.0975,-0.09,-0.0727,-0.0647,-0.0513,-0.0384,-0.0108,0.0066,0.0151,0.0161,0.0134,0.0139,0.0132,0.0043,0.0066,-0.0002,-0.0058,-0.0084,-0.0108,-0.0144,0.013,0.013,0.0031,0.003,0.003]},{"header":{"parameterUnit":"m.s-1","parameterCategory":2,"la1":30.2991,"la2":30.254,"lo1":-89.0895,"lo2":-89.0444,"dy":0.0017,"dx":0.0017,"nx":28,"ny":28,"refTime":"2024-04-29T21:00:00:Z","depth":"0","parameterNumber":3,"parameterNumberName":"V-component_of_CURRENTS"},"data":[0,0,0,0,0,0,0,0,0,0,0,0,0,0,0,0,0,0,0,0,0,0,0,0,0,0,0,0,0,0,0,0,0,0,0,0,0,0,0,0,0,0,0,0,0,0,0,0,0,0,0,0,0,0,0,0,0,0,0.0146,0.0148,0,0.032,0.0322,0.0324,0.0364,0.0363,0.0361,0.036,0.0565,0.0571,0.0578,0,0,0,0,0,0,0,0,0,0,0,0,0,-0.0012,-0.001,0.0146,0.0148,0.015,0.032,0.0322,0.0325,0.0364,0.0363,0.0361,0.0359,0.0562,0.057,0.0578,0,0,0,0,0,0,0,0,0,0,0,0,0,0.01,-0.0009,0.0146,0.0189,0.0194,0.0319,0.0322,0.0326,0.0365,0.0363,0.0361,0.0359,0.056,0.057,0.058,0.0685,0,0,0.0611,0.0615,0,0,0,0,0,0,0,0,0.0094,0.0106,0.018,0.0186,0.0192,0.0316,0.0342,0.0447,0.0365,0.0302,0.036,0.0358,0.0485,0.0501,0.0541,0.0694,0.0703,0.0611,0.0618,0.0622,0.0625,0,0,0,0,0,0,0,0.0086,0.01,0.0217,0.0183,0.019,0.0247,0.0259,0.0362,0.0405,0.0308,0.031,0.0327,0.0488,0.0531,0.0546,0.0706,0.0611,0.062,0.0626,0.063,0.0881,0.0882,0,0,0,0,0,0,0.0055,0.0092,0.0212,0.0222,0.0134,0.0251,0.0265,0.028,0.0404,0.042,0.0329,0.0328,0.0515,0.0534,0.0553,0.0605,0.0622,0.0631,0.0637,0.0881,0.0881,0.0882,0,0,0,0,0,0,0.0051,0.0064,0.0205,0.0159,0.0181,0.0254,0.0272,0.0285,0.0326,0.0419,0.0435,0.0355,0.0514,0.0539,0.0638,0.0616,0.0636,0.0645,0.088,0.0881,0.0882,0.076,0,0,0,0,0,0,0.0046,0.0062,0.0073,0.0157,0.0182,0.0282,0.0275,0.029,0.0338,0.0339,0.0448,0.0465,0.0514,0.0622,0.0648,0.063,0.0653,0.0879,0.088,0.0881,0.0763,0.0757,0.0751,0,0,0,0,0,0.004,0.0063,0.0073,0.0088,0.0191,0.0284,0.0303,0.0349,0.0341,0.0375,0.0433,0.0461,0.0645,0.0632,0.0662,0.0646,0.0879,0.088,0.0881,0.0766,0.0758,0.0751,0,0,0,0,0,0,0.001,0.0072,0.0084,0.0126,0.0198,0.0289,0.0326,0.0355,0.0431,0.0424,0.0497,0.052,0.0585,0.0654,0.0637,0.0723,0.0757,0.0765,0.066,0.0653,0.0647,0.0606,0.0662,0,0,0,0,0,0.0006,0.0026,0.0108,0.014,0.0176,0.0251,0.0294,0.0326,0.0399,0.0429,0.0495,0.0563,0.062,0.0664,0.0736,0.0815,0.0848,0.0819,0.0812,0.0806,0.0794,0.0831,0.0825,0.0886,0.0886,0.0886,0,0,0.0,0.0037,0.0049,0.0134,0.019,0.0225,0.0272,0.0338,0.0349,0.0444,0.0486,0.0554,0.0637,0.0694,0.0729,0.0747,0.0806,0.0808,0.0801,0.0793,0.0831,0.0825,0.0819,0.0887,0.0887,0.0887,0,0,-0.0017,0.0037,0.004,0.0098,0.0175,0.0223,0.0237,0.033,0.0356,0.0426,0.0463,0.0519,0.0641,0.0671,0.0704,0.0723,0.0769,0.0748,0.069,0.0724,0.0719,0.0714,0.0733,0.0731,0.0747,0.0747,0.0747,0,-0.003,-0.0019,0.0063,0.0084,0.0115,0.0208,0.0219,0.0273,0.0376,0.0402,0.042,0.0549,0.0614,0.0654,0.0642,0.0701,0.0732,0.0702,0.0711,0.0708,0.0705,0.0726,0.0726,0.0741,0.0742,0.0742,0.0743,0,-0.0054,-0.0035,-0.0018,0.0016,0.0072,0.0109,0.0183,0.0235,0.0272,0.0319,0.0383,0.0471,0.0542,0.0562,0.0606,0.0618,0.0649,0.069,0.0715,0.069,0.0716,0.0717,0.0733,0.0735,0.0737,0.0738,0,0,-0.0129,-0.0057,-0.0057,-0.0043,0.0036,0.0086,0.0109,0.0171,0.0189,0.0271,0.0293,0.0366,0.0421,0.0462,0.0524,0.0549,0.0543,0.0603,0.0608,0.0595,0.0611,0.0632,0.0636,0.0588,0.0588,0.0588,0.063,0,-0.0185,-0.0171,-0.0126,-0.0112,-0.009,-0.0001,0.002,0.0092,0.0152,0.0209,0.0282,0.0337,0.038,0.0416,0.0441,0.0537,0.0544,0.0527,0.0662,0.0665,0.0664,0.0637,0.0667,0.0708,0.0632,0.0632,0.0633,0,-0.0245,-0.0224,-0.0226,-0.0163,-0.0145,-0.0126,-0.0056,-0.002,0.0075,0.0124,0.0185,0.0261,0.0317,0.0355,0.0457,0.0449,0.0505,0.0563,0.0568,0.0629,0.0688,0.0729,0.0714,0.0746,0.0635,0.0635,0.0635,0,-0.0328,-0.0295,-0.0302,-0.0278,-0.0196,-0.018,-0.0136,-0.0046,0.0004,0.0076,0.0128,0.0198,0.0268,0.0333,0.0456,0.0459,0.057,0.0597,0.0656,0.0658,0.073,0.0739,0.074,0.0634,0.0633,0.0633,0.0633,0,-0.0395,-0.0395,-0.0336,-0.0325,-0.0307,-0.0237,-0.0202,-0.0141,-0.0057,0.0021,0.0082,0.0161,0.027,0.0365,0.0438,0.0557,0.0557,0.0631,0.0668,0.069,0.0694,0.0766,0.0773,0.0635,0.0635,0.0634,0.0634,0,-0.0453,-0.0433,-0.0416,-0.0356,-0.0336,-0.0309,-0.0211,-0.0168,-0.0104,-0.0002,0.0025,0.0152,0.0275,0.0373,0.0504,0.0558,0.0682,0.0685,0.0693,0.0729,0.0798,0.0798,0.0828,0.0891,0.0743,0.0743,0.0744,0,-0.0472,-0.0475,-0.0424,-0.0395,-0.0362,-0.0314,-0.0264,-0.0191,-0.0129,0.0017,0.0075,0.02,0.0331,0.0501,0.0594,0.0696,0.0734,0.0775,0.0773,0.0789,0.0817,0.0799,0.085,0.0821,0.0822,0.0823,0.0823,0,-0.0477,-0.0468,-0.0435,-0.0389,-0.0345,-0.029,-0.0215,-0.0179,-0.0069,0.0017,0.0169,0.0274,0.0442,0.0586,0.0694,0.076,0.0802,0.0797,0.0825,0.0874,0.0846,0.093,0.0792,0.0832,0.0831,0.0831,0.083,0.083,-0.0457,-0.0436,-0.0393,-0.0343,-0.0301,-0.0243,-0.0184,-0.0102,-0.0002,0.0171,0.024,0.044,0.0578,0.0742,0.0794,0.0889,0.0876,0.0936,0.0933,0.0911,0.0969,0.0831,0.0908,0.0908,0.0907,0.0907,0.0907,0,-0.0397,-0.0371,-0.0334,-0.0274,-0.0224,-0.0213,-0.012,-0.0039,0.0093,0.025,0.0399,0.0655,0.0767,0.0875,0.0965,0.1015,0.1036,0.1054,0.1041,0.109,0.0985,0.0987,0.1072,0.1072,0.1072,0.1072,0.1072,0.1072,-0.0349,-0.0303,-0.029,-0.0199,-0.0165,-0.008,-0.0024,0.01,0.0233,0.0504,0.0717,0.0867,0.1006,0.0971,0.1053,0.1096,0.1158,0.1144,0.1187,0.1107,0.1096,0.1085,0.1089,0.1193,0.1193,0.1314,0.1315,0.1316]}],[{"header":{"parameterUnit":"m.s-1","parameterCategory":2,"la1":30.2991,"la2":30.254,"lo1":-89.0895,"lo2":-89.0444,"dy":0.0017,"dx":0.0017,"nx":28,"ny":28,"refTime":"2024-04-29T21:00:00:Z","depth":"2","parameterNumber":2,"parameterNumberName":"U-component_of_CURRENTS"},"data":[0,0,0,0,0,0,0,0,0,0,0,0,0,0,0,0,0,0,0,0,0,0,0,0,0,0,0,0,0,0,0,0,0,0,0,0,0,0,0,0,0,0,0,0,0,0,0,0,0,0,0,0,0,0,0,0,0,0,-0.1648,-0.165,0,-0.167,-0.1669,-0.1668,-0.1661,-0.1662,-0.1663,-0.1664,-0.1581,-0.1578,-0.1575,0,0,0,0,0,0,0,0,0,0,0,0,0,-0.1572,-0.1572,-0.1648,-0.165,-0.1652,-0.1671,-0.1669,-0.1668,-0.166,-0.1662,-0.1663,-0.1664,-0.1582,-0.1578,-0.1574,0,0,0,0,0,0,0,0,0,0,0,0,0,-0.1585,-0.1572,-0.1648,-0.1662,-0.1665,-0.1671,-0.1669,-0.1668,-0.166,-0.1662,-0.1663,-0.1665,-0.1583,-0.1578,-0.1574,-0.1514,0,0,-0.1559,-0.1557,0,0,0,0,0,0,0,0,-0.1584,-0.1586,-0.1658,-0.1661,-0.1665,-0.1679,-0.1613,-0.1617,-0.166,-0.1644,-0.1664,-0.1665,-0.1614,-0.1606,-0.1585,-0.151,-0.1506,-0.1559,-0.1556,-0.1554,-0.1553,0,0,0,0,0,0,0,-0.1583,-0.1585,-0.164,-0.1661,-0.1665,-0.166,-0.1662,-0.1613,-0.1605,-0.1646,-0.1649,-0.1678,-0.1612,-0.159,-0.1583,-0.1505,-0.1559,-0.1555,-0.1552,-0.155,-0.1503,-0.1504,0,0,0,0,0,0,-0.1614,-0.1584,-0.164,-0.1642,-0.1646,-0.1662,-0.1663,-0.1659,-0.1608,-0.1608,-0.1677,-0.1678,-0.1597,-0.1589,-0.158,-0.1612,-0.1554,-0.155,-0.1547,-0.1501,-0.1503,-0.1505,0,0,0,0,0,0,-0.1611,-0.1617,-0.1639,-0.1629,-0.1634,-0.1663,-0.1658,-0.1659,-0.1696,-0.1636,-0.163,-0.1722,-0.1598,-0.1587,-0.1595,-0.1605,-0.1547,-0.1543,-0.1499,-0.1502,-0.1504,-0.1608,0,0,0,0,0,0,-0.1608,-0.1615,-0.1628,-0.163,-0.1636,-0.167,-0.1658,-0.1659,-0.1716,-0.1718,-0.1671,-0.1662,-0.1598,-0.1603,-0.1591,-0.1598,-0.1539,-0.1497,-0.15,-0.1503,-0.1603,-0.1614,-0.1623,0,0,0,0,0,-0.1605,-0.1628,-0.1627,-0.1637,-0.165,-0.1673,-0.1673,-0.1688,-0.1718,-0.1727,-0.172,-0.1666,-0.1613,-0.1601,-0.1586,-0.1592,-0.1496,-0.1499,-0.1503,-0.1598,-0.1612,-0.1623,0,0,0,0,0,0,-0.1604,-0.163,-0.163,-0.166,-0.1679,-0.1678,-0.1697,-0.1727,-0.1727,-0.1727,-0.1689,-0.1678,-0.1677,-0.1635,-0.1625,-0.159,-0.1544,-0.1544,-0.1621,-0.1633,-0.1643,-0.1561,-0.1535,0,0,0,0,0,-0.1611,-0.1633,-0.1651,-0.1678,-0.1684,-0.1701,-0.1722,-0.1728,-0.1736,-0.174,-0.1716,-0.1689,-0.1667,-0.166,-0.161,-0.1603,-0.1522,-0.1597,-0.1608,-0.1617,-0.1542,-0.1486,-0.1483,-0.1517,-0.1517,-0.1516,0,0,-0.1624,-0.1643,-0.1657,-0.1681,-0.1683,-0.1679,-0.1712,-0.1741,-0.1745,-0.1725,-0.1722,-0.1716,-0.1675,-0.1656,-0.1652,-0.1633,-0.1575,-0.1621,-0.1629,-0.1547,-0.1489,-0.1485,-0.1481,-0.1519,-0.1519,-0.1518,0,0,-0.164,-0.1664,-0.167,-0.1677,-0.1702,-0.1702,-0.1732,-0.1743,-0.1754,-0.1769,-0.1753,-0.1766,-0.1736,-0.1696,-0.1681,-0.1721,-0.1627,-0.173,-0.1715,-0.1665,-0.166,-0.1654,-0.1584,-0.1571,-0.1742,-0.1742,-0.1742,0,-0.1658,-0.1654,-0.1681,-0.1673,-0.1686,-0.1722,-0.1717,-0.1722,-0.1742,-0.1735,-0.1777,-0.1738,-0.1736,-0.1697,-0.1723,-0.1736,-0.1684,-0.1678,-0.1675,-0.1667,-0.1659,-0.1588,-0.1572,-0.1747,-0.1747,-0.1746,-0.1746,0,-0.1634,-0.1652,-0.1659,-0.1649,-0.1664,-0.1673,-0.1683,-0.1694,-0.1738,-0.173,-0.1727,-0.1734,-0.1704,-0.1739,-0.1746,-0.17,-0.1674,-0.1693,-0.1637,-0.1662,-0.1587,-0.1568,-0.1755,-0.1753,-0.1751,-0.175,0,0,-0.1628,-0.1641,-0.1645,-0.1636,-0.1652,-0.1653,-0.166,-0.1655,-0.1644,-0.167,-0.1652,-0.1669,-0.1674,-0.1654,-0.1679,-0.1652,-0.1614,-0.1657,-0.1652,-0.1572,-0.1479,-0.1404,-0.1376,-0.1643,-0.164,-0.1638,-0.1461,0,-0.1604,-0.1586,-0.1607,-0.1598,-0.1586,-0.1612,-0.1614,-0.161,-0.1622,-0.1601,-0.1611,-0.1595,-0.1645,-0.1659,-0.1638,-0.1612,-0.1563,-0.1656,-0.1473,-0.1465,-0.1385,-0.1351,-0.1275,-0.1104,-0.1442,-0.1439,-0.1437,0,-0.1558,-0.156,-0.1541,-0.1562,-0.1558,-0.1555,-0.1544,-0.1552,-0.1523,-0.1531,-0.1507,-0.1509,-0.1476,-0.1535,-0.144,-0.1502,-0.1469,-0.1449,-0.1443,-0.1295,-0.1353,-0.1127,-0.1057,-0.1405,-0.1408,-0.141,-0.1412,0,-0.1508,-0.152,-0.1507,-0.1504,-0.1518,-0.1517,-0.1533,-0.1517,-0.1495,-0.1469,-0.1444,-0.1405,-0.1391,-0.1342,-0.1327,-0.138,-0.12,-0.1278,-0.1153,-0.1149,-0.0994,-0.098,-0.1154,-0.1155,-0.1155,-0.1156,-0.1156,0,-0.1461,-0.1458,-0.1477,-0.1461,-0.144,-0.1475,-0.1438,-0.145,-0.1423,-0.1365,-0.1399,-0.1341,-0.1342,-0.1266,-0.1254,-0.1123,-0.1139,-0.1081,-0.1076,-0.1036,-0.1028,-0.1214,-0.1223,-0.1149,-0.115,-0.1152,-0.1153,0,-0.1385,-0.1415,-0.1381,-0.1393,-0.1411,-0.1376,-0.138,-0.1335,-0.1351,-0.1278,-0.1268,-0.1249,-0.1159,-0.1123,-0.103,-0.1012,-0.0917,-0.0865,-0.0805,-0.0794,-0.0916,-0.0933,-0.069,-0.0685,-0.0681,-0.0678,-0.0675,0,-0.133,-0.132,-0.1304,-0.1292,-0.1297,-0.1277,-0.1266,-0.1284,-0.1232,-0.121,-0.1154,-0.1077,-0.0983,-0.0812,-0.0749,-0.0634,-0.0748,-0.0522,-0.0601,-0.0836,-0.0858,-0.0881,-0.0903,-0.0458,-0.0454,-0.0451,-0.0448,0,-0.121,-0.1209,-0.1165,-0.1155,-0.1136,-0.1102,-0.1094,-0.1045,-0.1057,-0.101,-0.0931,-0.0865,-0.0721,-0.0561,-0.0436,-0.0394,-0.0543,-0.0445,-0.0663,-0.0601,-0.0607,-0.0633,-0.0664,-0.0416,-0.042,-0.0422,-0.0424,-0.0425,-0.1086,-0.1033,-0.0998,-0.0972,-0.0965,-0.0922,-0.0864,-0.0847,-0.0765,-0.0685,-0.0698,-0.0564,-0.0534,-0.0264,-0.0221,-0.0196,-0.0256,-0.0272,-0.0287,-0.0305,-0.0323,-0.0323,-0.008,-0.0081,-0.0082,-0.0083,-0.0084,0,-0.0894,-0.0885,-0.085,-0.0797,-0.0744,-0.0798,-0.0739,-0.0657,-0.0546,-0.0481,-0.0397,-0.0246,-0.0114,-0.0097,0.0016,0.0027,-0.0037,0.0002,-0.0088,-0.0115,-0.0141,-0.0158,0.0133,0.0133,0.0133,0.0133,0,0,-0.0791,-0.0695,-0.0691,-0.0571,-0.0582,-0.0482,-0.0432,-0.0346,-0.0267,-0.0128,-0.0039,-0.002,-0.0016,0.0082,0.0083,0.0137,-0.0001,0.0135,-0.0026,-0.0154,-0.018,-0.0269,-0.0319,0,0,0,0,0]},{"header":{"parameterUnit":"m.s-1","parameterCategory":2,"la1":30.2991,"la2":30.254,"lo1":-89.0895,"lo2":-89.0444,"dy":0.0017,"dx":0.0017,"nx":28,"ny":28,"refTime":"2024-04-29T21:00:00:Z","depth":"2","parameterNumber":3,"parameterNumberName":"V-component_of_CURRENTS"},"data":[0,0,0,0,0,0,0,0,0,0,0,0,0,0,0,0,0,0,0,0,0,0,0,0,0,0,0,0,0,0,0,0,0,0,0,0,0,0,0,0,0,0,0,0,0,0,0,0,0,0,0,0,0,0,0,0,0,0,-0.0758,-0.0757,0,-0.0665,-0.0664,-0.0663,-0.0658,-0.0659,-0.066,-0.0661,-0.061,-0.0607,-0.0605,0,0,0,0,0,0,0,0,0,0,0,0,0,-0.0828,-0.0828,-0.0758,-0.0756,-0.0755,-0.0665,-0.0664,-0.0662,-0.0658,-0.0659,-0.0661,-0.0662,-0.061,-0.0608,-0.0605,0,0,0,0,0,0,0,0,0,0,0,0,0,-0.0774,-0.0827,-0.0758,-0.0741,-0.0739,-0.0665,-0.0664,-0.0662,-0.0658,-0.0659,-0.0661,-0.0662,-0.0611,-0.0608,-0.0604,-0.0553,0,0,-0.0594,-0.0592,0,0,0,0,0,0,0,0,-0.0777,-0.0771,-0.0745,-0.0742,-0.0739,-0.0674,-0.0669,-0.0627,-0.0657,-0.069,-0.0661,-0.0663,-0.0633,-0.0628,-0.0608,-0.0551,-0.0548,-0.0594,-0.0591,-0.059,-0.0589,0,0,0,0,0,0,0,-0.0781,-0.0775,-0.0722,-0.0744,-0.074,-0.0703,-0.0698,-0.0661,-0.0656,-0.0687,-0.0686,-0.0674,-0.0632,-0.0611,-0.0607,-0.0548,-0.0594,-0.0591,-0.0588,-0.0587,-0.0395,-0.0393,0,0,0,0,0,0,-0.0794,-0.0779,-0.0725,-0.0719,-0.0761,-0.0701,-0.0695,-0.0694,-0.0655,-0.065,-0.0672,-0.0674,-0.0616,-0.0611,-0.0605,-0.0522,-0.059,-0.0587,-0.0585,-0.0398,-0.0395,-0.0392,0,0,0,0,0,0,-0.0796,-0.079,-0.0729,-0.0745,-0.0735,-0.0699,-0.0697,-0.0691,-0.0654,-0.0643,-0.064,-0.0639,-0.0617,-0.061,-0.0556,-0.0521,-0.0585,-0.0582,-0.0402,-0.0397,-0.0393,-0.0368,0,0,0,0,0,0,-0.0799,-0.0792,-0.0798,-0.0747,-0.0734,-0.0685,-0.0695,-0.0689,-0.0645,-0.0645,-0.0614,-0.0612,-0.0618,-0.0561,-0.0553,-0.0517,-0.0579,-0.0406,-0.04,-0.0395,-0.0373,-0.0363,-0.0355,0,0,0,0,0,-0.0802,-0.0804,-0.0799,-0.0792,-0.0744,-0.0684,-0.0674,-0.0654,-0.0641,-0.0625,-0.0595,-0.0612,-0.0519,-0.0556,-0.0547,-0.051,-0.0409,-0.0402,-0.0395,-0.0377,-0.0365,-0.0355,0,0,0,0,0,0,-0.0838,-0.0802,-0.0796,-0.0788,-0.074,-0.0684,-0.0668,-0.0633,-0.0592,-0.0595,-0.0577,-0.0572,-0.0518,-0.0499,-0.054,-0.0432,-0.0464,-0.0455,-0.0453,-0.0442,-0.0433,-0.0453,-0.0576,0,0,0,0,0,-0.0848,-0.0842,-0.0791,-0.0782,-0.076,-0.0704,-0.0676,-0.0653,-0.0607,-0.059,-0.0562,-0.0523,-0.048,-0.0452,-0.0427,-0.0357,-0.0359,-0.0321,-0.0312,-0.0305,-0.0311,-0.0281,-0.0271,-0.0369,-0.0369,-0.0369,0,0,-0.0864,-0.0838,-0.0838,-0.0789,-0.0754,-0.0716,-0.0691,-0.0645,-0.0617,-0.059,-0.0545,-0.0502,-0.0456,-0.0398,-0.0369,-0.0378,-0.0273,-0.0297,-0.0292,-0.0301,-0.0273,-0.0264,-0.0256,-0.0365,-0.0365,-0.0366,0,0,-0.0859,-0.0862,-0.0841,-0.0806,-0.0747,-0.0718,-0.0696,-0.0627,-0.0607,-0.0543,-0.0518,-0.0441,-0.0381,-0.0335,-0.0303,-0.0216,-0.024,-0.02,-0.0161,-0.0131,-0.0124,-0.0118,-0.0103,-0.0096,-0.0182,-0.0182,-0.0182,0,-0.0875,-0.0843,-0.0822,-0.0783,-0.0756,-0.0714,-0.0672,-0.0645,-0.0568,-0.0539,-0.0535,-0.0402,-0.0352,-0.0265,-0.0223,-0.02,-0.0198,-0.0214,-0.0125,-0.0119,-0.0114,-0.0099,-0.0091,-0.018,-0.018,-0.018,-0.018,0,-0.0837,-0.0819,-0.0801,-0.0752,-0.0722,-0.0682,-0.0644,-0.0609,-0.057,-0.0532,-0.0448,-0.0372,-0.029,-0.0241,-0.0199,-0.0112,-0.0129,-0.0135,-0.0167,-0.0103,-0.009,-0.0083,-0.0177,-0.0178,-0.0178,-0.0179,0,0,-0.083,-0.0786,-0.0774,-0.0755,-0.0702,-0.067,-0.0637,-0.0578,-0.054,-0.0483,-0.0417,-0.0302,-0.0259,-0.0215,-0.0148,-0.0086,-0.0013,-0.008,-0.0079,-0.0091,0.0037,0.0055,0.0064,-0.0016,-0.0015,-0.0014,0.0031,0,-0.0791,-0.0742,-0.0717,-0.0672,-0.0646,-0.0618,-0.0585,-0.0541,-0.0498,-0.0437,-0.0364,-0.0289,-0.0257,-0.0188,-0.0129,-0.0048,0.0006,-0.0026,0.0001,0.0002,-0.0013,0.0074,0.0041,0.0081,0.0038,0.0039,0.004,0,-0.0739,-0.0714,-0.0676,-0.0637,-0.0618,-0.0593,-0.0535,-0.0499,-0.0433,-0.0393,-0.0329,-0.0284,-0.0179,-0.0158,-0.0047,-0.0077,-0.0012,0.0043,0.0045,0.0052,0.0033,0.0013,0.0095,0.0051,0.005,0.0049,0.0049,0,-0.0739,-0.0679,-0.0658,-0.0645,-0.0598,-0.0573,-0.0542,-0.0482,-0.0449,-0.0369,-0.0328,-0.0249,-0.0179,-0.0123,-0.0011,-0.003,0.0103,0.008,0.0146,0.0146,0.0121,0.0118,0.0162,0.0161,0.0161,0.0161,0.0161,0,-0.0709,-0.0686,-0.0661,-0.0653,-0.0612,-0.0577,-0.0524,-0.0482,-0.0417,-0.0369,-0.0313,-0.0253,-0.0162,-0.0083,-0.0014,0.0088,0.0085,0.0166,0.017,0.0133,0.0131,0.0101,0.0094,0.0163,0.0163,0.0162,0.0162,0,-0.0713,-0.0698,-0.0674,-0.0633,-0.0619,-0.0594,-0.0536,-0.0494,-0.0437,-0.0372,-0.0348,-0.0248,-0.0144,-0.006,0.0074,0.0103,0.0193,0.0237,0.0186,0.0185,0.0207,0.0201,0.0284,0.0285,0.0286,0.0287,0.0288,0,-0.0722,-0.0713,-0.068,-0.0672,-0.0655,-0.0615,-0.058,-0.0513,-0.047,-0.0369,-0.0334,-0.0216,-0.0112,0.0058,0.0144,0.0244,0.0255,0.0273,0.0247,0.023,0.0225,0.0217,0.021,0.0222,0.0222,0.0222,0.0222,0,-0.0733,-0.0722,-0.0701,-0.0688,-0.0662,-0.0622,-0.0572,-0.0543,-0.0454,-0.0392,-0.028,-0.019,-0.0023,0.0092,0.0224,0.0269,0.0243,0.0279,0.029,0.02,0.0177,0.017,0.0164,0.0223,0.0223,0.0223,0.0223,0.0223,-0.0747,-0.0735,-0.0714,-0.0689,-0.0665,-0.0623,-0.0579,-0.0515,-0.0436,-0.0308,-0.0234,-0.0055,0.0007,0.0225,0.0261,0.0295,0.0294,0.0287,0.0284,0.0282,0.0271,0.0252,0.0309,0.031,0.031,0.031,0.0311,0,-0.0763,-0.0734,-0.072,-0.0683,-0.0649,-0.0633,-0.0562,-0.0497,-0.0391,-0.0247,-0.0112,0.0056,0.0156,0.0236,0.0282,0.0295,0.0273,0.0296,0.0247,0.0246,0.0245,0.023,0.0258,0.0258,0.0259,0.0259,0,0,-0.0769,-0.0738,-0.0715,-0.0659,-0.0642,-0.0575,-0.0529,-0.0421,-0.0299,-0.0107,0.005,0.0171,0.0233,0.0257,0.0239,0.0255,0.0251,0.0257,0.0292,0.0231,0.023,0.0228,0.0203,0,0,0,0,0]}],[{"header":{"parameterUnit":"m.s-1","parameterCategory":2,"la1":30.2991,"la2":30.254,"lo1":-89.0895,"lo2":-89.0444,"dy":0.0017,"dx":0.0017,"nx":28,"ny":28,"refTime":"2024-04-29T21:00:00:Z","depth":"4","parameterNumber":2,"parameterNumberName":"U-component_of_CURRENTS"},"data":[0,0,0,0,0,0,0,0,0,0,0,0,0,0,0,0,0,0,0,0,0,0,0,0,0,0,0,0,0,0,0,0,0,0,0,0,0,0,0,0,0,0,0,0,0,0,0,0,0,0,0,0,0,0,0,0,0,0,-0.0444,-0.0444,0,-0.0414,-0.0413,-0.0413,-0.0421,-0.0421,-0.0422,-0.0422,-0.0472,-0.0473,-0.0473,0,0,0,0,0,0,0,0,0,0,0,0,0,-0.0447,-0.0447,-0.0444,-0.0444,-0.0443,-0.0414,-0.0413,-0.0413,-0.0421,-0.0421,-0.0422,-0.0423,-0.0471,-0.0472,-0.0473,0,0,0,0,0,0,0,0,0,0,0,0,0,-0.0435,-0.0447,-0.0444,-0.0443,-0.0442,-0.0414,-0.0413,-0.0413,-0.0421,-0.0421,-0.0422,-0.0423,-0.0471,-0.0472,-0.0474,-0.0467,0,0,-0.0478,-0.0478,0,0,0,0,0,0,0,0,-0.0436,-0.0435,-0.0443,-0.0443,-0.0442,-0.0421,-0.0432,-0.0434,-0.042,-0.043,-0.0422,-0.0423,-0.0461,-0.0463,-0.0456,-0.0469,-0.0471,-0.0478,-0.0478,-0.0479,-0.0479,0,0,0,0,0,0,0,-0.0437,-0.0436,-0.0433,-0.0443,-0.0442,-0.0422,-0.0422,-0.0432,-0.0444,-0.0429,-0.0429,-0.0424,-0.0461,-0.0455,-0.0458,-0.0472,-0.0478,-0.0479,-0.048,-0.048,-0.0565,-0.0567,0,0,0,0,0,0,-0.0441,-0.0437,-0.0434,-0.0432,-0.0439,-0.0422,-0.0421,-0.0428,-0.0442,-0.0444,-0.0423,-0.0424,-0.0452,-0.0456,-0.0459,-0.0507,-0.0479,-0.048,-0.0481,-0.0564,-0.0566,-0.0567,0,0,0,0,0,0,-0.0441,-0.0441,-0.0435,-0.0432,-0.043,-0.0421,-0.0428,-0.0427,-0.0432,-0.0437,-0.0441,-0.0431,-0.0453,-0.0458,-0.0498,-0.0507,-0.0481,-0.0482,-0.0562,-0.0564,-0.0567,-0.0566,0,0,0,0,0,0,-0.0442,-0.0442,-0.0456,-0.0433,-0.043,-0.0437,-0.0427,-0.0426,-0.0426,-0.0428,-0.0444,-0.0449,-0.0454,-0.0497,-0.05,-0.0508,-0.0483,-0.056,-0.0563,-0.0566,-0.0564,-0.0568,-0.0572,0,0,0,0,0,-0.0442,-0.0448,-0.0457,-0.0457,-0.0448,-0.0438,-0.0435,-0.0431,-0.0426,-0.0437,-0.0457,-0.0449,-0.0517,-0.0499,-0.0502,-0.0511,-0.0559,-0.0562,-0.0566,-0.0563,-0.0568,-0.0571,0,0,0,0,0,0,-0.0458,-0.0449,-0.0458,-0.0464,-0.0463,-0.0439,-0.0438,-0.0436,-0.0454,-0.0465,-0.0467,-0.0473,-0.0508,-0.0519,-0.0499,-0.0548,-0.0537,-0.0541,-0.0534,-0.0538,-0.0542,-0.0552,-0.0484,0,0,0,0,0,-0.0469,-0.0471,-0.0465,-0.0472,-0.047,-0.0458,-0.0454,-0.0459,-0.0464,-0.0472,-0.0486,-0.0507,-0.0521,-0.0538,-0.0556,-0.0583,-0.0577,-0.0595,-0.0598,-0.0601,-0.0615,-0.0607,-0.061,-0.0578,-0.0578,-0.0578,0,0,-0.0477,-0.0471,-0.0474,-0.0476,-0.0468,-0.0477,-0.0458,-0.0461,-0.0479,-0.0476,-0.0511,-0.0519,-0.0532,-0.0563,-0.0579,-0.0575,-0.0607,-0.0605,-0.0607,-0.062,-0.0611,-0.0614,-0.0616,-0.0581,-0.058,-0.058,0,0,-0.0485,-0.0489,-0.0496,-0.0498,-0.0499,-0.0496,-0.0501,-0.05,-0.051,-0.0553,-0.0542,-0.0554,-0.0603,-0.0591,-0.0596,-0.0631,-0.0622,-0.0649,-0.0676,-0.0668,-0.067,-0.0672,-0.0657,-0.0657,-0.0654,-0.0654,-0.0654,0,-0.0492,-0.051,-0.0498,-0.0506,-0.051,-0.0507,-0.0525,-0.053,-0.0551,-0.0559,-0.0581,-0.0612,-0.0612,-0.0613,-0.0633,-0.0633,-0.064,-0.065,-0.067,-0.0671,-0.0673,-0.0657,-0.0658,-0.0654,-0.0654,-0.0654,-0.0654,0,-0.051,-0.053,-0.0527,-0.0543,-0.0551,-0.0561,-0.0571,-0.0588,-0.061,-0.062,-0.0649,-0.0652,-0.0669,-0.0666,-0.0668,-0.0672,-0.0676,-0.0666,-0.065,-0.0675,-0.0658,-0.0658,-0.0655,-0.0655,-0.0655,-0.0655,0,0,-0.0511,-0.0534,-0.0541,-0.0551,-0.0574,-0.0573,-0.0606,-0.0624,-0.0633,-0.0676,-0.0689,-0.0708,-0.0707,-0.0713,-0.0694,-0.0694,-0.0694,-0.0703,-0.0702,-0.0673,-0.0688,-0.0595,-0.0586,-0.0698,-0.0698,-0.0698,-0.0667,0,-0.0531,-0.0553,-0.057,-0.0599,-0.0606,-0.0619,-0.064,-0.066,-0.0688,-0.0702,-0.0702,-0.0714,-0.0723,-0.0724,-0.073,-0.0699,-0.0699,-0.0704,-0.0683,-0.0682,-0.0582,-0.0584,-0.07,-0.0667,-0.0667,-0.0667,-0.0667,0,-0.0551,-0.0561,-0.0592,-0.0611,-0.0616,-0.0638,-0.0659,-0.0681,-0.0699,-0.0723,-0.0745,-0.0746,-0.074,-0.0746,-0.0733,-0.0746,-0.0733,-0.0714,-0.0711,-0.0628,-0.0589,-0.0642,-0.0667,-0.0667,-0.0667,-0.0667,-0.0667,0,-0.054,-0.0576,-0.0597,-0.0605,-0.063,-0.0646,-0.0663,-0.069,-0.0696,-0.0725,-0.0736,-0.0751,-0.0742,-0.0747,-0.072,-0.0739,-0.07,-0.0704,-0.0605,-0.0598,-0.0691,-0.069,-0.07,-0.07,-0.07,-0.0701,-0.0701,0,-0.0536,-0.0547,-0.0592,-0.0594,-0.0606,-0.064,-0.0657,-0.0672,-0.07,-0.0697,-0.0738,-0.0724,-0.0751,-0.0729,-0.0722,-0.0654,-0.0697,-0.061,-0.0583,-0.0692,-0.0692,-0.069,-0.0689,-0.0699,-0.07,-0.07,-0.07,0,-0.0487,-0.0529,-0.0539,-0.0581,-0.0593,-0.0596,-0.0631,-0.0638,-0.068,-0.0676,-0.0681,-0.0702,-0.0671,-0.067,-0.0647,-0.0625,-0.0578,-0.0542,-0.0649,-0.0629,-0.0489,-0.0489,-0.0441,-0.0438,-0.0434,-0.0432,-0.043,0,-0.0426,-0.0445,-0.0506,-0.0508,-0.0521,-0.0544,-0.0555,-0.0612,-0.0622,-0.0642,-0.0626,-0.0609,-0.0612,-0.0504,-0.0522,-0.0481,-0.0473,-0.0459,-0.0496,-0.0483,-0.0462,-0.0467,-0.0471,-0.0425,-0.0424,-0.0423,-0.0423,0,-0.0303,-0.0364,-0.0379,-0.0411,-0.043,-0.0448,-0.0477,-0.0483,-0.054,-0.0584,-0.0538,-0.0506,-0.046,-0.0437,-0.04,-0.0377,-0.0477,-0.0427,-0.0435,-0.0469,-0.0463,-0.0446,-0.0454,-0.0412,-0.0414,-0.0415,-0.0415,0,-0.0181,-0.0196,-0.0256,-0.0278,-0.0313,-0.0336,-0.0374,-0.0387,-0.0408,-0.0459,-0.0433,-0.0419,-0.0441,-0.0379,-0.0343,-0.0309,-0.0313,-0.0316,-0.0329,-0.0341,-0.0322,-0.03,-0.0172,0,0,0,0,0,-0.0019,-0.0071,-0.0105,-0.0147,-0.0201,-0.0224,-0.0303,-0.0356,-0.0433,-0.0376,-0.0407,-0.0357,-0.0299,-0.0294,-0.0237,-0.0295,-0.0316,-0.0227,-0.0327,-0.0354,-0.0366,-0.0351,0,0,0,0,0,0,0.007,0.0038,-0.0062,-0.0044,-0.0054,-0.0099,-0.0154,-0.0216,-0.0206,-0.0277,-0.0248,-0.0293,-0.0246,-0.0291,-0.0203,-0.0204,-0.0252,-0.023,-0.0228,-0.0347,-0.0358,-0.0368,-0.0357,0,0,0,0,0]},{"header":{"parameterUnit":"m.s-1","parameterCategory":2,"la1":30.2991,"la2":30.254,"lo1":-89.0895,"lo2":-89.0444,"dy":0.0017,"dx":0.0017,"nx":28,"ny":28,"refTime":"2024-04-29T21:00:00:Z","depth":"4","parameterNumber":3,"parameterNumberName":"V-component_of_CURRENTS"},"data":[0,0,0,0,0,0,0,0,0,0,0,0,0,0,0,0,0,0,0,0,0,0,0,0,0,0,0,0,0,0,0,0,0,0,0,0,0,0,0,0,0,0,0,0,0,0,0,0,0,0,0,0,0,0,0,0,0,0,-0.0488,-0.0489,0,-0.0533,-0.0534,-0.0534,-0.0543,-0.0543,-0.0543,-0.0542,-0.0533,-0.0533,-0.0533,0,0,0,0,0,0,0,0,0,0,0,0,0,-0.0411,-0.0413,-0.0488,-0.0489,-0.0489,-0.0533,-0.0534,-0.0534,-0.0543,-0.0543,-0.0543,-0.0542,-0.0533,-0.0533,-0.0533,0,0,0,0,0,0,0,0,0,0,0,0,0,-0.0449,-0.0413,-0.0488,-0.0499,-0.0501,-0.0533,-0.0534,-0.0535,-0.0543,-0.0543,-0.0542,-0.0542,-0.0533,-0.0533,-0.0533,-0.0542,0,0,-0.0533,-0.0533,0,0,0,0,0,0,0,0,-0.0447,-0.0452,-0.0497,-0.0499,-0.05,-0.0533,-0.0503,-0.0535,-0.0543,-0.0527,-0.0542,-0.0542,-0.0528,-0.0528,-0.0538,-0.0542,-0.0542,-0.0533,-0.0533,-0.0533,-0.0533,0,0,0,0,0,0,0,-0.0444,-0.045,-0.0506,-0.0498,-0.05,-0.0503,-0.0508,-0.0509,-0.0528,-0.0528,-0.0529,-0.0535,-0.0528,-0.0538,-0.0538,-0.0541,-0.0533,-0.0533,-0.0533,-0.0533,-0.0532,-0.0532,0,0,0,0,0,0,-0.044,-0.0448,-0.0504,-0.0507,-0.0472,-0.0505,-0.051,-0.0522,-0.0529,-0.0531,-0.0535,-0.0535,-0.0538,-0.0538,-0.0538,-0.0547,-0.0533,-0.0533,-0.0533,-0.0532,-0.0532,-0.0532,0,0,0,0,0,0,-0.0438,-0.0445,-0.0503,-0.0478,-0.0486,-0.0506,-0.052,-0.0524,-0.0549,-0.0535,-0.0535,-0.0559,-0.0538,-0.0537,-0.0552,-0.0547,-0.0533,-0.0533,-0.0532,-0.0532,-0.0532,-0.0568,0,0,0,0,0,0,-0.0436,-0.0444,-0.0468,-0.0478,-0.0487,-0.0527,-0.0521,-0.0525,-0.0553,-0.0553,-0.0556,-0.0554,-0.0538,-0.0552,-0.0552,-0.0547,-0.0533,-0.0532,-0.0532,-0.0532,-0.0567,-0.0569,-0.0571,0,0,0,0,0,-0.0433,-0.0457,-0.0469,-0.0476,-0.0513,-0.0528,-0.0533,-0.0545,-0.0555,-0.0567,-0.0571,-0.0554,-0.055,-0.0553,-0.0552,-0.0547,-0.0532,-0.0532,-0.0532,-0.0566,-0.0568,-0.0571,0,0,0,0,0,0,-0.0442,-0.046,-0.0473,-0.0505,-0.052,-0.0529,-0.0548,-0.056,-0.0577,-0.058,-0.057,-0.0568,-0.0573,-0.056,-0.0563,-0.0544,-0.0532,-0.0532,-0.0557,-0.056,-0.0562,-0.0526,-0.0533,0,0,0,0,0,-0.0455,-0.0472,-0.0491,-0.0517,-0.0527,-0.0545,-0.056,-0.0566,-0.0576,-0.0585,-0.0584,-0.0577,-0.0571,-0.0568,-0.056,-0.0563,-0.0522,-0.0552,-0.0555,-0.0557,-0.0526,-0.0469,-0.0463,-0.0531,-0.0531,-0.0531,0,0,-0.0461,-0.0479,-0.0488,-0.052,-0.0535,-0.0535,-0.0553,-0.0574,-0.0571,-0.0579,-0.0584,-0.0593,-0.0575,-0.0572,-0.0571,-0.0561,-0.0523,-0.0556,-0.0558,-0.0526,-0.0468,-0.0461,-0.0455,-0.0531,-0.0531,-0.0531,0,0,-0.0467,-0.0504,-0.0513,-0.0522,-0.0547,-0.0551,-0.0561,-0.0579,-0.0587,-0.0602,-0.0597,-0.06,-0.0605,-0.0577,-0.0566,-0.0574,-0.054,-0.0582,-0.056,-0.0507,-0.05,-0.0494,-0.0462,-0.0453,-0.0578,-0.0578,-0.0578,0,-0.0479,-0.0492,-0.0519,-0.0523,-0.0527,-0.0555,-0.0553,-0.0562,-0.058,-0.0579,-0.0602,-0.0593,-0.0592,-0.0559,-0.0564,-0.0575,-0.0551,-0.0558,-0.0508,-0.0501,-0.0493,-0.0462,-0.0451,-0.058,-0.058,-0.0579,-0.0579,0,-0.0476,-0.049,-0.0496,-0.0503,-0.0513,-0.052,-0.0527,-0.0538,-0.0561,-0.0561,-0.0562,-0.057,-0.0551,-0.0564,-0.0571,-0.0522,-0.0526,-0.0524,-0.0502,-0.0489,-0.0458,-0.0445,-0.0582,-0.0582,-0.0581,-0.0581,0,0,-0.048,-0.0492,-0.0493,-0.0493,-0.0503,-0.0508,-0.05,-0.0498,-0.0489,-0.0512,-0.0492,-0.0501,-0.0511,-0.0497,-0.0509,-0.0474,-0.0429,-0.0484,-0.048,-0.0451,-0.0328,-0.0361,-0.0351,-0.0427,-0.0425,-0.0423,-0.0337,0,-0.0469,-0.0472,-0.0476,-0.0466,-0.0465,-0.0474,-0.0462,-0.046,-0.047,-0.0457,-0.0458,-0.0451,-0.0482,-0.0488,-0.0455,-0.0436,-0.0393,-0.0453,-0.0343,-0.0339,-0.0369,-0.0335,-0.0414,-0.0328,-0.0325,-0.0323,-0.0321,0,-0.0456,-0.046,-0.0456,-0.0447,-0.0449,-0.0443,-0.0431,-0.0425,-0.0403,-0.041,-0.0394,-0.0398,-0.0359,-0.0391,-0.0316,-0.0359,-0.0332,-0.0318,-0.0314,-0.0312,-0.0348,-0.0335,-0.0298,-0.03,-0.0302,-0.0303,-0.0305,0,-0.0441,-0.044,-0.044,-0.0437,-0.0432,-0.0429,-0.0427,-0.0413,-0.0405,-0.0375,-0.0365,-0.0324,-0.031,-0.0261,-0.0252,-0.0274,-0.0171,-0.019,-0.0186,-0.0189,-0.017,-0.0177,-0.01,-0.01,-0.0101,-0.0101,-0.0101,0,-0.0418,-0.0412,-0.0437,-0.0432,-0.0427,-0.0426,-0.0413,-0.0404,-0.038,-0.0359,-0.0342,-0.0317,-0.0276,-0.0231,-0.0212,-0.0167,-0.0129,-0.0157,-0.0155,-0.0194,-0.0204,-0.0163,-0.0171,-0.0098,-0.0098,-0.0099,-0.0099,0,-0.0385,-0.0403,-0.0403,-0.0414,-0.042,-0.0417,-0.0414,-0.0399,-0.0382,-0.0348,-0.0336,-0.0292,-0.0241,-0.0207,-0.0129,-0.0121,-0.0072,-0.0062,-0.0111,-0.0118,-0.0135,-0.0146,-0.0027,-0.0027,-0.0028,-0.0028,-0.0028,0,-0.0364,-0.0364,-0.0398,-0.0407,-0.0413,-0.0415,-0.0413,-0.0403,-0.0384,-0.0338,-0.0314,-0.0261,-0.0235,-0.0136,-0.0114,-0.0055,-0.0061,-0.0027,-0.0068,-0.011,-0.012,-0.0131,-0.0142,-0.0028,-0.0028,-0.0028,-0.0028,0,-0.0314,-0.0341,-0.0347,-0.0378,-0.039,-0.0394,-0.039,-0.0375,-0.0354,-0.0342,-0.0276,-0.0235,-0.0179,-0.0131,-0.0091,-0.0055,-0.0044,-0.0028,-0.0028,-0.0066,-0.0109,-0.0122,-0.0132,-0.0028,-0.0028,-0.0028,-0.0028,0,-0.0277,-0.0281,-0.031,-0.0328,-0.0354,-0.0359,-0.0366,-0.034,-0.032,-0.0277,-0.0257,-0.0205,-0.0176,-0.013,-0.0094,-0.0065,-0.0063,-0.0051,-0.0049,-0.0049,-0.01,-0.0161,-0.0068,0,0,0,0,0,-0.0214,-0.022,-0.0253,-0.0275,-0.0309,-0.032,-0.0337,-0.0342,-0.033,-0.0279,-0.0265,-0.0216,-0.0159,-0.0133,-0.0105,-0.0113,-0.007,-0.0081,-0.0059,-0.0031,-0.003,-0.0091,0,0,0,0,0,0,-0.0168,-0.019,-0.023,-0.0231,-0.024,-0.0262,-0.0276,-0.0278,-0.0249,-0.0239,-0.0206,-0.0198,-0.0145,-0.0158,-0.0093,-0.0088,-0.007,-0.0059,-0.0058,-0.0031,-0.003,-0.003,-0.0093,0,0,0,0,0]}]]